N4MRV-1 Weather Reports


time (UTC)temp
C
wind
direction
speed
KPH
gust
KPH
rain 1hr
cm
rain 24hr
cm
rain mn
cm
humidity
%
barometer
mb
20260510151517 26 135 1.6 8.0 0.00 0.00 0.00 46 1014.8
20260510150017 25 158 1.6 6.4 0.00 0.00 0.00 44 1014.8
20260510144517 23 315 1.6 4.8 0.00 0.00 0.00 47 1014.8
20260510143017 22 113 1.6 4.8 0.00 0.00 0.00 48 1014.7
20260510141535 21 0 1.6 6.4 0.00 0.00 0.00 55 1014.6
20260510140017 20 0.0 4.8 0.00 0.00 0.00 60 1014.6
20260510134557 20 315 1.6 4.8 0.00 0.00 0.00 64 1014.5
20260510133017 18 315 1.6 4.8 0.00 0.00 0.00 67 1014.5
20260510131537 17 0.0 6.4 0.00 0.00 0.00 73 1014.7
20260510130017 16 0.0 4.8 0.00 0.00 0.00 79 1014.6
20260510124517 15 0 1.6 4.8 0.00 0.00 0.00 88 1014.3
20260510123017 14 0.0 3.2 0.00 0.00 0.00 95 1014.3
20260510121517 13 0.0 3.2 0.00 0.00 0.00 95 1014.0
20260510120017 13 0.0 0.0 0.00 0.00 0.00 95 1013.7
20260510114517 12 0.0 1.6 0.00 0.00 0.00 94 1013.6
20260510113037 12 0.0 1.6 0.00 0.00 0.00 93 1013.4
20260510111517 12 0.0 0.0 0.00 0.00 0.00 93 1013.3
20260510110017 11 0.0 0.0 0.00 0.00 0.00 92 1013.2
20260510104516 11 0.0 1.6 0.00 0.00 0.00 91 1013.0
20260510103017 12 0.0 0.0 0.00 0.00 0.00 91 1012.8
20260510101517 12 0.0 1.6 0.00 0.00 0.00 91 1012.5
20260510100037 12 0.0 0.0 0.00 0.00 0.00 91 1012.4
20260510094516 12 0.0 0.0 0.00 0.00 0.00 90 1012.3
20260510093056 12 0.0 0.0 0.00 0.00 0.00 90 1012.2
20260510091517 13 0.0 0.0 0.00 0.00 0.00 89 1012.1
20260510090016 13 0.0 0.0 0.00 0.00 0.00 89 1011.9
20260510084516 13 0.0 1.6 0.00 0.00 0.00 89 1011.8
20260510083016 14 0.0 0.0 0.00 0.00 0.00 88 1011.7
20260510081516 14 0.0 0.0 0.00 0.00 0.00 87 1011.7
20260510080016 15 0.0 0.0 0.00 0.00 0.00 86 1011.5
20260510074516 15 0.0 0.0 0.00 0.00 0.00 86 1011.5
20260510073016 15 0.0 0.0 0.00 0.00 0.00 85 1011.4
20260510071556 16 0.0 0.0 0.00 0.00 0.00 85 1011.5
20260510070016 16 0.0 0.0 0.00 0.00 0.00 85 1011.5
20260510064516 16 0.0 1.6 0.00 0.00 0.00 84 1011.4
20260510063016 16 0.0 1.6 0.00 0.00 0.00 84 1011.3
20260510061536 16 0.0 1.6 0.00 0.00 0.00 84 1011.3
20260510060016 16 0.0 1.6 0.00 0.00 0.00 84 1011.3
20260510054516 16 0.0 3.2 0.00 0.00 0.00 84 1011.3
20260510053016 16 0.0 1.6 0.00 0.00 0.00 84 1011.3
20260510051516 16 0.0 1.6 0.00 0.00 0.00 84 1011.3
20260510050016 16 0.0 1.6 0.00 0.00 0.00 85 1011.3
20260510044536 16 0.0 0.0 0.00 0.00 0.00 85 1011.3
20260510043016 16 0.0 0.0 0.00 0.00 0.00 83 1011.4
20260510041516 16 0.0 0.0 0.00 0.00 0.00 83 1011.3
20260510040016 16 0.0 0.0 0.00 0.00 0.00 83 1011.3
20260510034517 16 0.0 0.0 0.00 0.00 0.00 82 1011.2
20260510033016 16 0.0 0.0 0.00 0.00 0.00 81 1011.2
20260510031516 16 0.0 0.0 0.00 0.00 0.00 79 1011.0
20260510030016 16 0.0 0.0 0.00 0.00 0.00 77 1010.9
20260510024516 16 0.0 0.0 0.00 0.00 0.00 76 1010.8
20260510023016 16 0.0 0.0 0.00 0.00 0.00 74 1010.7
20260510021516 17 0.0 0.0 0.00 0.00 0.00 74 1010.5
20260510020036 17 0.0 0.0 0.00 0.00 0.00 72 1010.2
20260510014536 17 0.0 0.0 0.00 0.00 0.00 72 1010.0
20260510013016 18 0.0 0.0 0.00 0.00 0.00 70 1009.9
20260510011536 18 0.0 0.0 0.00 0.00 0.00 68 1009.7
20260510010036 19 0.0 0.0 0.00 0.00 0.00 66 1009.7
20260510004516 20 0.0 0.0 0.00 0.00 0.00 63 1009.4
20260510003016 20 0.0 0.0 0.00 0.00 0.00 61 1009.2
20260510001516 21 0.0 1.6 0.00 0.00 0.00 59 1009.2
20260510000016 22 0.0 1.6 0.00 0.00 0.00 56 1008.9
20260509234516 22 0.0 1.6 0.00 0.00 0.00 54 1008.9
20260509233016 23 0.0 1.6 0.00 0.00 0.00 52 1008.9
20260509231516 23 0.0 3.2 0.00 0.00 0.00 52 1009.0
20260509230016 24 0.0 3.2 0.00 0.00 0.00 51 1008.9
20260509224516 24 248 1.6 3.2 0.00 0.00 0.00 51 1008.8
20260509223016 25 180 1.6 6.4 0.00 0.00 0.00 51 1008.8
20260509221556 24 158 1.6 11.3 0.00 0.00 0.00 55 1008.9
20260509220016 23 180 1.6 6.4 0.00 0.00 0.00 53 1008.8
20260509214516 23 0.0 3.2 0.00 0.00 0.00 54 1008.7
20260509213036 23 158 1.6 6.4 0.00 0.00 0.00 51 1008.7
20260509211516 24 203 1.6 6.4 0.00 0.00 0.00 51 1008.7
20260509210016 24 0 1.6 3.2 0.00 0.00 0.00 50 1008.6
20260509204516 24 315 1.6 4.8 0.00 0.00 0.00 48 1008.5
20260509203016 24 248 1.6 8.0 0.00 0.00 0.00 49 1008.3
20260509201516 24 293 1.6 11.3 0.00 0.00 0.00 49 1008.5
20260509200016 24 225 3.2 14.5 0.00 0.00 0.00 49 1008.7
20260509194516 24 315 1.6 8.0 0.00 0.00 0.00 47 1008.8
20260509193016 24 225 1.6 11.3 0.00 0.00 0.00 47 1008.9
20260509191516 23 315 1.6 6.4 0.00 0.00 0.00 50 1009.3
20260509190016 23 293 1.6 6.4 0.00 0.00 0.00 53 1009.6
20260509184516 23 225 1.6 12.9 0.00 0.00 0.00 51 1009.8
20260509183015 23 248 3.2 8.0 0.00 0.00 0.00 51 1010.0
20260509181516 23 180 3.2 9.7 0.00 0.00 0.00 49 1010.2
20260509180015 23 180 3.2 9.7 0.00 0.00 0.00 51 1010.2
20260509174515 23 158 3.2 9.7 0.00 0.00 0.00 54 1010.2
20260509173016 23 135 1.6 8.0 0.00 0.00 0.00 53 1010.4
20260509171515 23 225 3.2 8.0 0.00 0.00 0.00 52 1010.6
20260509170015 23 270 3.2 8.0 0.00 0.00 0.00 53 1010.9
20260509164535 23 203 3.2 9.7 0.00 0.00 0.00 53 1011.1
20260509163035 23 225 3.2 11.3 0.00 0.00 0.00 51 1011.0
20260509161515 23 293 3.2 9.7 0.00 0.00 0.00 49 1011.2
20260509160017 22 225 3.2 11.3 0.00 0.00 0.00 50 1011.2
20260509154517 22 248 3.2 11.3 0.00 0.00 0.00 50 1011.6
20260509153017 22 248 3.2 14.5 0.00 0.00 0.00 54 1011.7